CZ-3A DEB, 35558

Orbit data source: Space-Track

CZ-3A DEB, 35558 is space debris in HEO originally from a launch on Fri, 02 Feb 2007 UTC launched from the Xichang Space Center, China (XSC). Debris objects in space refer to the collection of defunct objects orbiting the Earth. Examples of debris include non-operational satellites, rocket bodies, and fragments generated from explosions, collisions, or faulty payload assembly.

Loading next visibility...
Identifier
35558, 2007-003S
Orbit
HEO
Country
Flag of CNCN / PRC
Related business
Manufacturer
Unknown
Mission
Spacecraft
Bus & Motor
Unknown
Mass
Unknown
Launch date (UTC)
2007-02-02 (19 years ago)
Launch vehicle
Unknown
Launch site
Xichang Space Center, China (XSC)
Object type
Payload
Rocket body
Debris
Shape & HBR
Unknown shape, 0.3 m
Radar Cross Section
Medium (>0.1 m² and <1 m²)

Expand to show TLE details & history
Last TLE update: 3 days ago

TLE from 3 days ago
0 CZ-3A DEB
1 35558U 07003S   26170.30035228 -.00000032  00000-0  50220-3 0  9993
2 35558  22.3046 140.1101 7480717 113.4095 337.1702  1.91839126 90978
Epoch: 2026-06-19T07:12Z
TLE epoch observation values (Epoch: 2026-06-19T07:12:30.436Z)
Latitude
0.00003°
Longitude
124.33151°
Altitude
10,760.193 km
Speed
5.652 km/s
True Right ascension
09h 19m 57s
True Declination
0° 00' 00"
Sunlit
Object was in daylight at epoch
Visualization orbit readout
Latitude
Unknown
Longitude
Unknown
Altitude
Unknown
Speed
Unknown
Apparent Right ascension
Unknown
Apparent Declination
Unknown
Sunlit
N/A
Visualization observer readout
Local Sidereal Time
00:50:10
Azimuth
Unknown
Elevation
Unknown
Doppler factor
Unknown
Orbital elements
Apogee altitude
41,456.054 km
Perigee altitude
515.623 km
Semi-major axis
27,363.976 km
Eccentricity
0.74807
Inclination
22.3046°
RAAN
140.1101°
Arg. of periapsis
113.4095°
True anomaly
246.73952°
Mean anomaly
337.1702°
Eccentric anomaly
300.08182°
Mean motion
0.47948 °/min
Orbital period
750.81 mins
BSTAR
0.0005022
Loading maneuver chart data...
Computing Atmospheric mass density...
Loading historical data...
Loading historical data...
Loading historical data...
Loading historical data...
Loading historical data...
Loading historical data...
Loading historical data...

Documentation

Showing up to 5 results
|